Content
SEND FEEDBACK

Daily
Averages
Monthly
Summary
United Kingdom

LONDON, ENGLAND


Home > Europe > United Kingdom > England
Elevation: 203 feet     Latitude: 51 09N     Longitude: 000 11W

WEATHER
 
SELECT A DAY
Number of Records: 294,581;   Date Range: 7/1/96 - 9/19/14
 
SHARE

PRINT THIS DATA

[ ← Previous Day ]
WEATHER ALMANAC - OCTOBER 22, 2013
[ Next Day → ]
[ °C ]   °F
Weather ElementAverageHighLow
Temperature61.6 °F64.4 °F (3:20 pm)59 °F (11:20 pm)
Dewpoint57.7 °F59 °F (10:50 am)57.2 °F (12:50 am)
Humidity87.1 %94 % (10:50 am)77 % (4:50 pm)
Barometer29.46 in29.62 in (12:50 am)29.36 in (11:20 pm)
Wind Speed9.9 mph15 mph (4:20 pm)
Wind Gust25.3 mph (3:50 pm)
Weather ElementAverage
Visibility5.8 mi
Wind DirectionS (178.1 °)

Weather ElementTotal
Precipitation---
Heating Degree Days3.3 (Base 65)
Growing Degree Days11.7 (Base 50)
Averaged from 47 records on October 22, 2013
WEATHER CONDITIONS BREAKOUT
WIND DIRECTION BREAKOUT
WEATHER BY HOUR - OCTOBER 22, 2013
[ °C ]   °F
Local TimeTemperatureDewpointHumidityBarometerVisibilityWind DirectionWind SpeedGust SpeedPrecipitationEventsConditions
12:50 AM62.6 °F57.2 °F82 %29.62 inSouth (170°)10.4 mph21.9 mphClear
1:20 AM62.6 °F57.2 °F82 %29.62 inSouth (170°)10.4 mphClear
1:50 AM62.6 °F57.2 °F82 %29.59 inSouth (170°)10.4 mphClear
2:20 AM62.6 °F57.2 °F82 %29.59 in6.2 miSouth (170°)9.2 mphRainLight Rain
2:50 AM62.6 °F57.2 °F82 %29.56 in5.6 miSouth (170°)10.4 mphPartly Cloudy
3:20 AM62.6 °F57.2 °F82 %29.56 inSouth (170°)9.2 mphClear
3:50 AM62.6 °F57.2 °F82 %29.56 in6.2 miSSE (160°)9.2 mphRainLight Rain
4:20 AM60.8 °F57.2 °F88 %29.53 in6.2 miSouth (170°)8.1 mphRainLight Rain
4:50 AM60.8 °F57.2 °F88 %29.53 inSSE (160°)6.9 mphClear
5:20 AM60.8 °F57.2 °F88 %29.53 in6.2 miSSE (160°)6.9 mphRainLight Rain
5:50 AM60.8 °F57.2 °F88 %29.53 in5.6 miSouth (180°)6.9 mphRainLight Rain
6:20 AM60.8 °F57.2 °F88 %29.50 in6.2 miSSE (160°)8.1 mphRainLight Rain
6:50 AM60.8 °F57.2 °F88 %29.50 in6.2 miSSE (160°)6.9 mphMostly Cloudy
7:20 AM60.8 °F57.2 °F88 %29.50 in6.2 miSouth (170°)6.9 mphMostly Cloudy
7:50 AM60.8 °F57.2 °F88 %29.47 in6.2 miSouth (170°)9.2 mphRainLight Rain Showers
8:20 AM60.8 °F57.2 °F88 %29.47 in6.2 miSouth (180°)9.2 mphRainLight Rain
8:50 AM60.8 °F57.2 °F88 %29.47 in6.2 miSouth (180°)10.4 mphRainLight Rain Showers
9:20 AM60.8 °F57.2 °F88 %29.47 in6.2 miSouth (190°)10.4 mphRainLight Rain
9:50 AM60.8 °F57.2 °F88 %29.47 in5.6 miSouth (180°)9.2 mphRainLight Rain
10:20 AM60.8 °F57.2 °F88 %29.47 in5.0 miSouth (170°)9.2 mphRainLight Rain
10:50 AM60.8 °F59.0 °F94 %29.47 in3.1 miSouth (180°)8.1 mphRainRain
11:20 AM60.8 °F59.0 °F94 %29.47 in4.3 miSouth (180°)10.4 mphRainLight Rain
11:50 AM60.8 °F59.0 °F94 %29.47 in5.0 miSouth (190°)9.2 mphRainLight Rain
12:20 PM60.8 °F59.0 °F94 %29.44 in1.4 miSSW (200°)10.4 mphRainRain
12:50 PM60.8 °F59.0 °F94 %29.44 in6.2 miSSW (200°)12.7 mphMostly Cloudy
1:20 PM62.6 °F59.0 °F88 %29.44 in6.2 miSouth (190°)10.4 mphMostly Cloudy
1:50 PM62.6 °F59.0 °F88 %29.44 in6.2 miSouth (180°)10.4 mphMostly Cloudy
2:20 PM62.6 °F59.0 °F88 %29.42 in6.2 miSouth (180°)10.4 mphMostly Cloudy
2:50 PM62.6 °F59.0 °F88 %29.42 in6.2 miSouth (180°)11.5 mphMostly Cloudy
3:20 PM64.4 °F59.0 °F83 %29.42 in6.2 miSouth (190°)10.4 mphScattered Clouds
3:50 PM64.4 °F59.0 °F83 %29.42 in6.2 miSouth (190°)12.7 mph25.3 mphScattered Clouds
4:20 PM64.4 °F59.0 °F83 %29.42 in6.2 miSouth (190°)15.0 mphScattered Clouds
4:50 PM64.4 °F57.2 °F77 %29.42 in6.2 miSouth (190°)10.4 mphPartly Cloudy
5:20 PM62.6 °F57.2 °F82 %29.39 inSouth (180°)10.4 mphClear
5:50 PM62.6 °F57.2 °F82 %29.42 in6.2 miSouth (170°)10.4 mphScattered Clouds
6:20 PM60.8 °F57.2 °F88 %29.39 in6.2 miSouth (170°)10.4 mphRainLight Rain
6:50 PM60.8 °F57.2 °F88 %29.39 in6.2 miSouth (170°)11.5 mphPartly Cloudy
7:20 PM60.8 °F57.2 °F88 %29.39 inSouth (170°)9.2 mphClear
7:50 PM60.8 °F57.2 °F88 %29.39 inSouth (180°)12.7 mphClear
8:20 PM60.8 °F57.2 °F88 %29.39 inSouth (180°)11.5 mphClear
8:50 PM60.8 °F57.2 °F88 %29.39 inSouth (180°)12.7 mphClear
9:20 PM60.8 °F57.2 °F88 %29.39 in6.2 miSouth (190°)10.4 mphScattered Clouds
9:50 PM60.8 °F57.2 °F88 %29.39 in6.2 miSouth (190°)9.2 mphPartly Cloudy
10:20 PM60.8 °F57.2 °F88 %29.39 in6.2 miSouth (190°)9.2 mphScattered Clouds
10:50 PM60.8 °F57.2 °F88 %29.39 in4.3 miSSW (200°)11.5 mphRainLight Rain Showers
11:20 PM59.0 °F57.2 °F94 %29.36 in6.2 miSouth (180°)6.9 mphPartly Cloudy
11:50 PM60.8 °F57.2 °F88 %29.36 in6.2 miSouth (170°)9.2 mphPartly Cloudy
Hourly data recorded from EGKK, located miles away from London, England







STORIES FROM OUR PARTNERS